Hourly Weather Barshamay

Today, 19 April, Monday

Time Temperature Precipitation Wind Pressure Humidity
00:00 +15°C° 0 mm 1 mps 713 mmHg 73%
01:00 +15°C° 0 mm 1 mps 713 mmHg 73%
02:00 +14°C° 0 mm 1 mps 713 mmHg 72%
03:00 +14°C° 0 mm 1 mps 712 mmHg 72%
04:00 +14°C° 0 mm 1 mps 713 mmHg 72%
05:00 +15°C° 0 mm 1 mps 713 mmHg 71%
06:00 +15°C° 0 mm 1 mps 713 mmHg 71%
07:00 +16°C° 0 mm 1 mps 713 mmHg 67%
08:00 +18°C° 0 mm 1 mps 713 mmHg 63%
09:00 +19°C° 0 mm 2 mps 713 mmHg 58%
10:00 +20°C° 0 mm 3 mps 713 mmHg 54%
11:00 +22°C° 0 mm 3 mps 713 mmHg 51%
12:00 +23°C° 0 mm 4 mps 712 mmHg 47%
13:00 +22°C° 0 mm 4 mps 712 mmHg 48%
14:00 +22°C° 0 mm 3 mps 712 mmHg 49%
15:00 +22°C° 0 mm 3 mps 712 mmHg 50%
16:00 +20°C° 0 mm 3 mps 712 mmHg 54%
17:00 +19°C° 0 mm 2 mps 712 mmHg 59%
18:00 +17°C° 0 mm 2 mps 712 mmHg 64%
19:00 +16°C° 0 mm 1 mps 712 mmHg 66%
20:00 +16°C° 0 mm 1 mps 712 mmHg 68%
21:00 +15°C° 0 mm 1 mps 712 mmHg 70%
22:00 +15°C° 0 mm 1 mps 712 mmHg 69%
23:00 +15°C° 0 mm 1 mps 712 mmHg 69%

Tomorrow, 20 April, Tuesday

Time Temperature Precipitation Wind Pressure Humidity
00:00 +15°C° 0 mm 1 mps 712 mmHg 68%
01:00 +15°C° 0 mm 1 mps 712 mmHg 67%
02:00 +14°C° 0 mm 1 mps 712 mmHg 67%
03:00 +14°C° 0 mm 1 mps 711 mmHg 66%
04:00 +15°C° 0 mm 1 mps 711 mmHg 66%
05:00 +15°C° 0 mm 1 mps 711 mmHg 66%
06:00 +14°C° 0 mm 0 mps 711 mmHg 66%
07:00 +18°C° 0 mm 1 mps 711 mmHg 61%
08:00 +18°C° 0 mm 2 mps 711 mmHg 55%
09:00 +20°C° 0 mm 2 mps 711 mmHg 50%
10:00 +23°C° 0 mm 2 mps 710 mmHg 47%
11:00 +24°C° 0 mm 3 mps 710 mmHg 44%
12:00 +25°C° 0 mm 3 mps 709 mmHg 41%
13:00 +26°C° 0 mm 3 mps 709 mmHg 39%
14:00 +27°C° 0 mm 3 mps 708 mmHg 38%
15:00 +27°C° 0 mm 4 mps 708 mmHg 36%
16:00 +25°C° 0 mm 3 mps 708 mmHg 43%
17:00 +23°C° 0 mm 2 mps 708 mmHg 50%
18:00 +22°C° 0 mm 1 mps 708 mmHg 57%
19:00 +21°C° 0.1 mm 1 mps 708 mmHg 57%
20:00 +20°C° 0.1 mm 2 mps 709 mmHg 57%
21:00 +19°C° 0.1 mm 2 mps 709 mmHg 56%
22:00 +20°C° 0 mm 2 mps 709 mmHg 55%
23:00 +20°C° 0 mm 2 mps 709 mmHg 55%

Day after tomorrow, 21 April, Wednesday

Time Temperature Precipitation Wind Pressure Humidity
00:00 +20°C° 0 mm 2 mps 708 mmHg 54%
01:00 +19°C° 0 mm 2 mps 709 mmHg 57%
02:00 +18°C° 0 mm 2 mps 709 mmHg 60%
03:00 +17°C° 0 mm 2 mps 710 mmHg 64%
04:00 +17°C° 0 mm 2 mps 710 mmHg 68%
05:00 +16°C° 0 mm 2 mps 711 mmHg 71%
06:00 +16°C° 0 mm 2 mps 711 mmHg 75%
07:00 +17°C° 0 mm 2 mps 712 mmHg 72%
08:00 +18°C° 0 mm 2 mps 712 mmHg 68%
09:00 +20°C° 0 mm 3 mps 712 mmHg 64%
10:00 +20°C° 0 mm 3 mps 712 mmHg 62%
11:00 +20°C° 0 mm 4 mps 712 mmHg 60%
12:00 +20°C° 0 mm 4 mps 712 mmHg 57%
13:00 +20°C° 0 mm 4 mps 712 mmHg 60%
14:00 +19°C° 0 mm 4 mps 712 mmHg 62%
15:00 +19°C° 0 mm 4 mps 712 mmHg 64%
16:00 +17°C° 0.6 mm 3 mps 713 mmHg 70%
17:00 +16°C° 0.6 mm 3 mps 713 mmHg 77%
18:00 +15°C° 0.6 mm 2 mps 713 mmHg 83%
19:00 +15°C° 0 mm 2 mps 714 mmHg 84%
20:00 +14°C° 0 mm 1 mps 714 mmHg 85%
21:00 +14°C° 0 mm 1 mps 715 mmHg 85%
22:00 +13°C° 0 mm 1 mps 715 mmHg 86%
23:00 +13°C° 0 mm 1 mps 715 mmHg 86%

22 April, Thursday

Time Temperature Precipitation Wind Pressure Humidity
00:00 +13°C° 0 mm 1 mps 715 mmHg 87%
01:00 +12°C° 0 mm 1 mps 715 mmHg 87%
02:00 +12°C° 0 mm 1 mps 714 mmHg 87%
03:00 +12°C° 0 mm 1 mps 714 mmHg 87%
04:00 +12°C° 0 mm 1 mps 715 mmHg 87%
05:00 +12°C° 0 mm 1 mps 715 mmHg 86%
06:00 +13°C° 0 mm 1 mps 715 mmHg 86%
07:00 +14°C° 0 mm 1 mps 715 mmHg 79%
08:00 +15°C° 0 mm 2 mps 715 mmHg 73%
09:00 +16°C° 0 mm 2 mps 715 mmHg 67%
10:00 +17°C° 0 mm 3 mps 715 mmHg 65%
11:00 +17°C° 0 mm 3 mps 715 mmHg 64%
12:00 +17°C° 0 mm 3 mps 715 mmHg 62%
13:00 +15°C° 0 mm 4 mps 715 mmHg 67%
14:00 +14°C° 0 mm 4 mps 715 mmHg 72%
15:00 +14°C° 0 mm 4 mps 716 mmHg 78%
16:00 +13°C° 0 mm 3 mps 716 mmHg 81%
17:00 +12°C° 0 mm 3 mps 716 mmHg 85%
18:00 +12°C° 0 mm 2 mps 716 mmHg 88%
19:00 +12°C° 0 mm 2 mps 716 mmHg 88%
20:00 +12°C° 0 mm 1 mps 716 mmHg 88%
21:00 +12°C° 0 mm 1 mps 716 mmHg 88%
22:00 +12°C° 0 mm 1 mps 716 mmHg 88%
23:00 +12°C° 0 mm 1 mps 716 mmHg 88%

23 April, Friday

Time Temperature Precipitation Wind Pressure Humidity
00:00 +12°C° 0 mm 1 mps 716 mmHg 87%
01:00 +12°C° 0 mm 1 mps 716 mmHg 87%
02:00 +12°C° 0 mm 1 mps 716 mmHg 87%
03:00 +11°C° 0 mm 1 mps 716 mmHg 87%
04:00 +11°C° 0 mm 1 mps 716 mmHg 87%
05:00 +11°C° 0 mm 1 mps 716 mmHg 87%
06:00 +10°C° 0 mm 2 mps 716 mmHg 87%
07:00 +10°C° 0 mm 2 mps 716 mmHg 85%
08:00 +12°C° 0 mm 2 mps 717 mmHg 82%
09:00 +12°C° 0 mm 2 mps 717 mmHg 80%
10:00 +12°C° 0 mm 2 mps 717 mmHg 79%
11:00 +12°C° 0 mm 2 mps 717 mmHg 78%
12:00 +12°C° 0 mm 2 mps 717 mmHg 78%
13:00 +12°C° 0 mm 2 mps 717 mmHg 77%
14:00 +13°C° 0 mm 2 mps 717 mmHg 76%
15:00 +13°C° 0 mm 2 mps 717 mmHg 75%
16:00 +13°C° 0 mm 1 mps 717 mmHg 76%
17:00 +13°C° 0 mm 1 mps 717 mmHg 76%
18:00 +13°C° 0 mm 1 mps 717 mmHg 77%
19:00 +12°C° 0 mm 1 mps 717 mmHg 78%
20:00 +11°C° 0 mm 1 mps 717 mmHg 80%
21:00 +11°C° 0 mm 1 mps 717 mmHg 82%
22:00 +11°C° 0 mm 1 mps 717 mmHg 81%
23:00 +11°C° 0 mm 1 mps 716 mmHg 80%

24 April, Saturday

Time Temperature Precipitation Wind Pressure Humidity
00:00 +11°C° 0 mm 1 mps 716 mmHg 79%
01:00 +11°C° 0 mm 1 mps 716 mmHg 79%
02:00 +10°C° 0 mm 1 mps 716 mmHg 79%
03:00 +10°C° 0 mm 1 mps 716 mmHg 78%
04:00 +11°C° 0 mm 1 mps 716 mmHg 76%
05:00 +11°C° 0 mm 1 mps 716 mmHg 75%
06:00 +12°C° 0 mm 1 mps 716 mmHg 73%
07:00 +13°C° 0 mm 2 mps 716 mmHg 68%
08:00 +15°C° 0 mm 2 mps 716 mmHg 63%
09:00 +16°C° 0 mm 3 mps 716 mmHg 58%
10:00 +17°C° 0 mm 3 mps 716 mmHg 56%
11:00 +17°C° 0 mm 4 mps 716 mmHg 54%
12:00 +18°C° 0 mm 4 mps 715 mmHg 52%
13:00 +18°C° 0 mm 4 mps 715 mmHg 54%
14:00 +18°C° 0 mm 4 mps 715 mmHg 56%
15:00 +17°C° 0 mm 4 mps 716 mmHg 58%
16:00 +16°C° 0 mm 3 mps 716 mmHg 62%
17:00 +14°C° 0 mm 3 mps 716 mmHg 67%
18:00 +15°C° 0 mm 2 mps 716 mmHg 72%
19:00 +14°C° 0 mm 2 mps 716 mmHg 74%
20:00 +13°C° 0 mm 2 mps 716 mmHg 77%
21:00 +12°C° 0 mm 2 mps 716 mmHg 80%
22:00 +12°C° 0 mm 2 mps 715 mmHg 78%
23:00 +12°C° 0 mm 2 mps 715 mmHg 76%
Show more